HB9FHL-13 Weather Reports


time (UTC)temp
C
wind
direction
speed
KPH
gust
KPH
rain 1hr
cm
rain 24hr
cm
rain mn
cm
humidity
%
barometer
mb
20260506022807 11 0 0.0 0.0 0.00 0.00 0.00 1006.4
20260506022307 11 0 0.0 0.0 0.00 0.00 0.00 1006.8
20260506021806 11 0 0.0 0.0 0.00 0.00 0.00 1008.8
20260506021306 11 201 0.0 0.0 0.00 0.00 0.00 1009.0
20260506020805 11 0 0.0 0.0 0.00 0.00 0.00 1008.4
20260506020305 12 0 0.0 0.0 0.00 0.00 0.00 1011.0
20260506015804 12 0 0.0 0.0 0.00 0.00 0.00 1005.8
20260506015306 12 0 0.0 0.0 0.00 0.00 0.00 1008.7
20260506014803 12 233 1.6 4.8 0.00 0.00 0.00 1009.8
20260506014303 12 215 6.4 11.3 0.00 0.00 0.00 1008.7
20260506013802 12 225 6.4 9.7 0.00 0.00 0.00 1007.7
20260506013302 12 249 6.4 12.9 0.00 0.00 0.00 1011.4
20260506012801 12 233 6.4 14.5 0.00 0.00 0.00 1013.3
20260506011800 12 217 6.4 14.5 0.00 0.00 0.00 1009.1
20260506011300 12 238 8.0 24.1 0.00 0.00 0.00 1009.9
20260506010759 12 226 9.7 20.9 0.00 0.00 0.00 1005.4
20260506010259 13 240 12.9 22.5 0.00 0.00 0.00 1010.6
20260506005756 13 225 9.7 17.7 0.00 0.00 0.00 1004.9
20260506005256 12 232 9.7 16.1 0.00 0.00 0.00 1005.9
20260506004756 11 228 9.7 19.3 0.00 0.00 0.00 1006.5
20260506004255 12 222 8.0 14.5 0.00 0.00 0.00 1007.5
20260506003755 12 233 8.0 12.9 0.00 0.00 0.00 1009.7
20260506003254 13 229 9.7 16.1 0.00 0.00 0.00 1012.4
20260506002754 12 232 6.4 9.7 0.00 0.00 0.00 1008.7
20260506002253 13 229 8.0 14.5 0.00 0.00 0.00 1004.7
20260506001753 12 243 9.7 16.1 0.00 0.00 0.00 1007.2
20260506001254 13 233 11.3 17.7 0.00 0.00 0.00 1010.0
20260506000752 12 252 3.2 16.1 0.00 0.00 0.00 1009.3
20260506000251 12 0 0.0 0.0 0.00 0.00 0.00 1009.8
20260505235751 13 228 1.6 8.0 0.00 0.00 0.00 1006.5
20260505235250 12 232 8.0 17.7 0.00 0.00 0.00 1009.7
20260505234750 12 253 4.8 9.7 0.00 0.00 0.00 1010.5
20260505234249 12 243 4.8 8.0 0.00 0.00 0.00 1008.6
20260505233749 13 225 4.8 9.7 0.00 0.00 0.00 1007.0
20260505233248 12 240 8.0 14.5 0.00 0.00 0.00 1010.7
20260505232748 13 243 6.4 11.3 0.00 0.00 0.00 1013.0
20260505232247 12 217 8.0 14.5 0.00 0.00 0.00 1004.2
20260505231748 13 243 9.7 16.1 0.00 0.00 0.00 1007.2
20260505231246 12 240 9.7 16.1 0.00 0.00 0.00 1009.6
20260505230746 13 243 9.7 14.5 0.00 0.00 0.00 1008.1
20260505230245 12 208 9.7 17.7 0.00 0.00 0.00 1008.3
20260505225745 12 228 9.7 16.1 0.00 0.00 0.00 1007.1
20260505225244 13 225 8.0 14.5 0.00 0.00 0.00 1007.0
20260505224744 13 232 11.3 17.7 0.00 0.00 0.00 1007.0
20260505224243 13 225 6.4 16.1 0.00 0.00 0.00 1011.3
20260505223742 13 252 6.4 14.5 0.00 0.00 0.00 1011.7
20260505223242 13 238 8.0 11.3 0.00 0.00 0.00 1013.2
20260505222741 13 217 9.7 17.7 0.00 0.00 0.00 1011.7
20260505222243 12 221 8.0 16.1 0.00 0.00 0.00 1003.0
20260505221740 12 212 8.0 14.5 0.00 0.00 0.00 1013.9
20260505221240 12 240 4.8 14.5 0.00 0.00 0.00 1008.7
20260505220739 12 238 4.8 11.3 0.00 0.00 0.00 1010.6
20260505220236 12 221 6.4 9.7 0.00 0.00 0.00 1010.0
20260505215736 12 246 4.8 9.7 0.00 0.00 0.00 1006.4
20260505215235 12 238 6.4 11.3 0.00 0.00 0.00 1009.6
20260505214735 13 243 6.4 12.9 0.00 0.00 0.00 1009.6
20260505214234 12 231 6.4 14.5 0.00 0.00 0.00 1007.1
20260505213738 12 236 6.4 12.9 0.00 0.00 0.00 1009.8
20260505213233 13 231 6.4 12.9 0.00 0.00 0.00 1008.3
20260505212733 12 245 8.0 14.5 0.00 0.00 0.00 1005.9
20260505212232 12 233 8.0 16.1 0.00 0.00 0.00 1009.1
20260505211732 12 221 8.0 14.5 0.00 0.00 0.00 1011.8
20260505211230 12 214 11.3 20.9 0.00 0.00 0.00 1010.5
20260505210729 13 231 9.7 20.9 0.00 0.00 0.00 1006.2
20260505210225 13 232 12.9 22.5 0.00 0.00 0.00 1009.8
20260505205725 13 231 11.3 22.5 0.00 0.00 0.00 1002.9
20260505205224 13 232 9.7 17.7 0.00 0.00 0.00 1007.4
20260505204219 12 252 9.7 16.1 0.00 0.00 0.00 1006.6
20260505203719 12 222 9.7 17.7 0.00 0.00 0.00 1007.8
20260505203218 12 242 11.3 16.1 0.00 0.00 0.00 1010.6
20260505202217 12 235 11.3 19.3 0.00 0.00 0.00 1011.7
20260505201716 12 215 9.7 16.1 0.00 0.00 0.00 1007.7
20260505201216 12 231 9.7 14.5 0.00 0.00 0.00 1004.2
20260505200716 12 229 8.0 14.5 0.00 0.00 0.00 1008.0
20260505200215 12 222 8.0 16.1 0.00 0.00 0.00 1012.6
20260505200157 12 243 11.3 19.3 0.00 0.00 0.00 1009.5
20260505195715 12 243 11.3 19.3 0.00 0.00 0.00 1009.5
20260505195619 12 222 11.3 19.3 0.00 0.00 0.00 1008.4
20260505195214 12 222 11.3 19.3 0.00 0.00 0.00 1008.4
20260505194714 12 212 9.7 17.7 0.00 0.00 0.00 1001.5
20260505194213 11 215 8.0 12.9 0.00 0.00 0.00 1008.1
20260505193713 12 214 8.0 17.7 0.00 0.00 0.00 1007.4
20260505193212 12 240 9.7 20.9 0.00 0.00 0.00 1007.2
20260505192712 12 242 11.3 27.4 0.00 0.00 0.00 1012.2
20260505192211 13 200 11.3 17.7 0.00 0.00 0.00 1011.3
20260505191711 12 233 9.7 16.1 0.00 0.00 0.00 1010.6
20260505191210 12 225 9.7 17.7 0.00 0.00 0.00 1004.5
20260505190710 13 229 9.7 20.9 0.00 0.00 0.00 1009.5
20260505190209 11 226 9.7 20.9 0.00 0.00 0.00 1014.2
20260505185709 11 226 9.7 17.7 0.00 0.00 0.00 1004.8
20260505185208 11 215 8.0 17.7 0.00 0.00 0.00 1004.6
20260505184708 12 226 11.3 19.3 0.00 0.00 0.00 1002.7
20260505184207 12 232 12.9 24.1 0.00 0.00 0.00 1004.9
20260505183707 11 233 11.3 19.3 0.00 0.00 0.00 1006.0
20260505183206 13 222 14.5 22.5 0.00 0.00 0.00 1005.1
20260505182704 12 236 17.7 27.4 0.00 0.00 0.00 1020.1
20260505182205 11 233 16.1 30.6 0.00 0.00 0.00 1006.9
20260505181703 11 231 19.3 29.0 0.00 0.00 0.00 1015.8
20260505181203 11 240 20.9 33.8 0.00 0.00 0.00 1018.1
20260505180702 12 242 20.9 33.8 0.00 0.00 0.00 1008.9
20260505180202 12 233 19.3 30.6 0.00 0.00 0.00 1006.6
20260505175701 11 240 20.9 37.0 0.00 0.00 0.00 1012.5
20260505175201 11 242 22.5 35.4 0.00 0.00 0.00 1006.1
20260505174700 11 231 19.3 32.2 0.00 0.00 0.00 1010.9
20260505174159 11 238 17.7 33.8 0.00 0.00 0.00 1001.6
20260505173659 12 203 17.7 29.0 0.00 0.00 0.00 1011.0
20260505173158 12 226 17.7 27.4 0.00 0.00 0.00 1006.1
20260505172658 12 211 19.3 32.2 0.00 0.00 0.00 1007.6
20260505172157 11 221 20.9 32.2 0.00 0.00 0.00 1006.4
20260505171657 12 233 22.5 45.1 0.00 0.00 0.00 1007.8
20260505171156 12 229 19.3 32.2 0.00 0.00 0.00 1008.5
20260505170655 13 242 19.3 32.2 0.00 0.00 0.00 1018.1
20260505170153 12 235 20.9 37.0 0.00 0.00 0.00 1007.5
20260505165653 12 232 20.9 37.0 0.00 0.00 0.00 1001.5
20260505165152 13 229 14.5 24.1 0.00 0.00 0.00 1010.5
20260505164652 13 238 17.7 40.2 0.00 0.00 0.00 1013.3
20260505164151 13 229 22.5 37.0 0.00 0.00 0.00 1009.8
20260505163650 14 243 17.7 29.0 0.00 0.00 0.00 1005.1
20260505163150 13 245 14.5 22.5 0.00 0.00 0.00 1003.5
20260505162649 12 224 12.9 20.9 0.00 0.00 0.00 1010.7
20260505162149 13 246 12.9 20.9 0.00 0.00 0.00 1011.1
20260505161648 12 232 14.5 22.5 0.00 0.00 0.00 1001.9
20260505161148 13 233 12.9 20.9 0.00 0.00 0.00 1002.6
20260505160647 13 240 11.3 17.7 0.00 0.00 0.00 1003.5
20260505160147 14 245 11.3 19.3 0.00 0.00 0.00 1007.0
20260505153143 14 263 9.7 17.7 0.00 0.00 0.00 1000.7
20260505152643 14 245 11.3 16.1 0.00 0.00 0.00 1007.7
20260505152142 16 246 11.3 17.7 0.00 0.00 0.00 1008.0
20260505151644 15 262 11.3 19.3 0.00 0.00 0.00 1005.8
20260505151141 15 242 11.3 17.7 0.00 0.00 0.00 1008.9
20260505150640 15 228 8.0 16.1 0.00 0.00 0.00 1002.2
20260505150138 15 346 4.8 11.3 0.00 0.00 0.00 999.8
20260505140629 15 35 4.8 9.7 0.00 0.00 0.00 1005.6
20260505140129 15 39 1.6 4.8 0.00 0.00 0.00 1005.0
20260505130123 15 46 8.0 14.5 0.00 0.00 0.00 1006.7
20260505124621 15 27 3.2 6.4 0.00 0.00 0.00 1007.9
20260505124119 14 311 1.6 3.2 0.00 0.00 0.00 1007.2
20260505123619 13 339 1.6 3.2 0.00 0.00 0.00 1009.9
20260505122617 13 3 8.0 12.9 0.00 0.00 0.00 1009.3
20260505122117 13 6 4.8 8.0 0.00 0.00 0.00 1008.7
20260505121615 13 359 4.8 9.7 0.00 0.00 0.00 1009.5
20260505121115 14 10 6.4 11.3 0.00 0.00 0.00 1008.6
20260505120651 14 246 3.2 8.0 0.00 0.00 0.00 1011.6
20260505120614 14 246 3.2 8.0 0.00 0.00 0.00 1011.6
20260505120112 13 232 3.2 8.0 0.00 0.00 0.00 1009.9
20260505115612 13 274 1.6 6.4 0.00 0.00 0.00 1009.5
20260505115111 13 277 3.2 6.4 0.00 0.00 0.00 1008.4
20260505114612 12 333 1.6 6.4 0.00 0.00 0.00 1007.6
20260505114110 12 315 4.8 8.0 0.00 0.00 0.00 1008.6
20260505113610 12 350 6.4 9.7 0.00 0.00 0.00 1006.7
20260505113109 12 359 6.4 14.5 0.00 0.00 0.00 1006.6
20260505112609 12 10 4.8 11.3 0.00 0.00 0.00 1007.8
20260505112106 12 329 4.8 9.7 0.00 0.00 0.00 1010.0
20260505111609 12 13 4.8 9.7 0.00 0.00 0.00 1010.0
20260505111219 12 41 3.2 8.0 0.00 0.00 0.00 1011.5
20260505111104 12 41 3.2 8.0 0.00 0.00 0.00 1011.5
20260505110603 12 335 3.2 6.4 0.00 0.00 0.00 1008.0
20260505110218 12 343 1.6 4.8 0.00 0.00 0.00 1005.8
20260505102059 11 56 4.8 8.0 0.00 0.00 0.00 1006.5
20260505101558 12 62 4.8 9.7 0.00 0.00 0.00 1006.2
20260505101058 12 10 6.4 9.7 0.00 0.00 0.00 1006.2
20260505100557 12 13 4.8 8.0 0.00 0.00 0.00 1004.7
20260505100057 12 13 3.2 6.4 0.00 0.00 0.00 1010.1
20260505095556 11 63 4.8 6.4 0.00 0.00 0.00 1009.7
20260505095056 12 42 4.8 6.4 0.00 0.00 0.00 1006.1
20260505094555 11 80 4.8 8.0 0.00 0.00 0.00 1007.9
20260505094055 12 75 1.6 4.8 0.00 0.00 0.00 1007.8
20260505093554 11 49 3.2 4.8 0.00 0.00 0.00 1007.5
20260505093054 11 60 3.2 4.8 0.00 0.00 0.00 1007.7
20260505092553 12 84 3.2 4.8 0.00 0.00 0.00 1009.9
20260505092052 11 63 3.2 4.8 0.00 0.00 0.00 1010.4
20260505091552 11 346 1.6 4.8 0.00 0.00 0.00 1011.8
20260505091051 11 49 1.6 3.2 0.00 0.00 0.00 1006.5
20260505090551 11 80 3.2 4.8 0.00 0.00 0.00 1009.6
20260505090050 11 73 3.2 4.8 0.00 0.00 0.00 1011.9
20260505085550 12 58 3.2 4.8 0.00 0.00 0.00 1009.1
20260505085049 12 0 0.0 0.0 0.00 0.00 0.00 1006.0
20260505084549 11 6 1.6 4.8 0.00 0.00 0.00 1009.6
20260505084048 11 6 3.2 6.4 0.00 0.00 0.00 1012.9
20260505083548 12 326 0.0 3.2 0.00 0.00 0.00 1007.0
20260505083047 12 59 3.2 4.8 0.00 0.00 0.00 1013.5
20260505082547 11 7 1.6 4.8 0.00 0.00 0.00 1010.3
20260505082047 11 69 1.6 3.2 0.00 0.00 0.00 1008.7
20260505081546 11 73 3.2 4.8 0.00 0.00 0.00 1008.8
20260505081045 12 53 3.2 4.8 0.00 0.00 0.00 1007.8
20260505080545 11 69 1.6 4.8 0.00 0.00 0.00 1012.3
20260505080044 11 89 1.6 8.0 0.00 0.00 0.00 1008.3
20260505075544 11 83 6.4 8.0 0.00 0.00 0.00 1008.7
20260505075043 12 86 0.0 3.2 0.00 0.00 0.00 1005.6
20260505074544 11 60 0.0 1.6 0.00 0.00 0.00 1008.5
20260505074042 11 77 4.8 6.4 0.00 0.00 0.00 1012.9
20260505073542 11 80 3.2 6.4 0.00 0.00 0.00 1012.6
20260505073041 11 104 3.2 4.8 0.00 0.00 0.00 1010.3
20260505072541 11 89 4.8 4.8 0.00 0.00 0.00 1009.9
20260505072040 11 83 4.8 8.0 0.00 0.00 0.00 1010.6
20260505071540 11 77 1.6 6.4 0.00 0.00 0.00 1005.4
20260505071039 11 79 1.6 1.6 0.00 0.00 0.00 1012.8
20260505070539 11 0 0.0 0.0 0.00 0.00 0.00 1009.9
20260505070038 11 0 0.0 0.0 0.00 0.00 0.00 1012.7
20260505065538 11 0 0.0 0.0 0.00 0.00 0.00 1008.5
20260505065037 11 0 0.0 0.0 0.00 0.00 0.00 1009.0
20260505064537 10 250 0.0 1.6 0.00 0.00 0.00 1012.9
20260505064036 11 326 1.6 4.8 0.00 0.00 0.00 1009.5
20260505063536 11 0 0.0 0.0 0.00 0.00 0.00 1009.0
20260505063033 12 0 0.0 0.0 0.00 0.00 0.00 1009.6
20260505062532 11 240 1.6 3.2 0.00 0.00 0.00 1012.8
20260505062032 12 236 1.6 4.8 0.00 0.00 0.00 1010.3
20260505061531 11 0 0.0 0.0 0.00 0.00 0.00 1009.7
20260505061031 11 0 0.0 0.0 0.00 0.00 0.00 1011.5
20260505060530 12 226 1.6 4.8 0.00 0.00 0.00 1008.6
20260505060030 11 229 1.6 3.2 0.00 0.00 0.00 1007.5
20260505055530 11 0 0.0 0.0 0.00 0.00 0.00 1009.4
20260505055029 10 229 0.0 3.2 0.00 0.00 0.00 1008.4
20260505054528 11 231 4.8 8.0 0.00 0.00 0.00 1008.5
20260505054028 11 255 1.6 3.2 0.00 0.00 0.00 1005.9
20260505053527 11 217 0.0 3.2 0.00 0.00 0.00 1007.6
20260505053025 11 217 0.0 3.2 0.00 0.00 0.00 1008.4
20260505052524 11 221 3.2 4.8 0.00 0.00 0.00 1009.6
20260505052023 10 236 0.0 3.2 0.00 0.00 0.00 1009.9
20260505051523 11 0 0.0 0.0 0.00 0.00 0.00 1011.7
20260505051022 12 0 0.0 0.0 0.00 0.00 0.00 1008.3
20260505050522 11 0 0.0 0.0 0.00 0.00 0.00 1009.7
20260505041516 11 232 0.0 1.6 0.00 0.00 0.00 1008.7
20260505041015 11 0 0.0 0.0 0.00 0.00 0.00 1008.5
20260505040515 11 0 0.0 0.0 0.00 0.00 0.00 1013.2
20260505040014 11 215 0.0 0.0 0.00 0.00 0.00 1010.0
20260505035514 11 0 0.0 0.0 0.00 0.00 0.00 1009.0
20260505035014 11 228 0.0 1.6 0.00 0.00 0.00 1011.1
20260505034513 10 226 1.6 3.2 0.00 0.00 0.00 1012.4
20260505034013 11 0 0.0 0.0 0.00 0.00 0.00 1012.7
20260505033512 11 231 1.6 3.2 0.00 0.00 0.00 1008.7
20260505033012 11 0 0.0 0.0 0.00 0.00 0.00 1009.4
20260505032511 11 0 0.0 0.0 0.00 0.00 0.00 1009.8
20260505032011 11 0 0.0 0.0 0.00 0.00 0.00 1011.6
20260505031510 11 0 0.0 0.0 0.00 0.00 0.00 1009.8
20260505031008 11 0 0.0 0.0 0.00 0.00 0.00 1009.6
20260505030507 11 229 0.0 3.2 0.00 0.00 0.00 1012.8
20260505030007 11 222 0.0 3.2 0.00 0.00 0.00 1010.6
20260505025507 11 0 0.0 0.0 0.00 0.00 0.00 1010.4
20260505025005 10 0 0.0 0.0 0.00 0.00 0.00 1010.0
20260505024504 11 0 0.0 0.0 0.00 0.00 0.00 1008.6
20260505024003 11 0 0.0 0.0 0.00 0.00 0.00 1009.7
20260505023503 11 0 0.0 0.0 0.00 0.00 0.00 1011.3